COSMOS 2516 (753)

Last updated on Tue Sep 19 2023 00:03:10 GMT+0000 (Coordinated Universal Time)

1 41554U 16032A 23261.11990977 .00000052 00000+0 00000+0 0 9993 2 41554 63.8657 225.5837 0015351 214.3052 145.5768 2.13106411 56859
UTC large
Height (km)
Speed (km/s)
/
Latitude / Longitude
Inclination (degrees)
Orbital Period (minutes)
Azimuth
Elevation
Range (km)
Doppler Factor

Next 0 passes for location: London (51.5072 / 0.1276)

Sorry there are no passes over London.